Hourly Data Report for March 29, 2018

MIRAMICHI RCS
NEW BRUNSWICK

47°00'34.000" N
65°27'54.000" W
33.00 m
8100989
71744
ACQ

Download Data

Hourly Data (March 2018)
Hourly Data Report for March 29, 2018
TIME
LST
Temp Definition
°C
Dew Point Definition
°C
Rel Hum Definition
%
Precip. Amount Definition
mm

Wind Dir Definition
10's deg

Wind Spd Definition
km/h
Visibility Definition
km
Stn Press Definition
kPa
Hmdx Definition


Wind Chill Definition


Weather Definition


00:00 0.4 -0.4 95 0.0 28 6   100.87     LegendNANA
01:00 0.2 -1.1 91 0.0 26 6   100.86     LegendNANA
02:00 -2.1 -3.0 94 0.0 26 5   100.87   -4 LegendNANA
03:00 -1.6 -2.2 96 0.0 27 5   100.87   -3 LegendNANA
04:00 -2.2 -2.9 94 0.0 27 7   100.94   -5 LegendNANA
05:00 -2.6 -3.4 94 0.0 26 7   100.99   -5 LegendNANA
06:00 -2.9 -3.8 93 0.0 26 5   101.00   -5 LegendNANA
07:00 -2.0 -3.4 90 0.0 26 10   101.08   -6 LegendNANA
08:00 -0.2 -2.8 83 0.0 25 7   101.11   -3 LegendNANA
09:00 1.7 -2.0 76 0.0 29 10   101.15     LegendNANA
10:00 4.1 -1.6 66 0.0 31 13   101.18     LegendNANA
11:00 5.6 -2.0 58 0.0 31 15   101.18     LegendNANA
12:00 7.3 -2.8 49 0.0 32 12   101.08     LegendNANA
13:00 8.3 -3.0 45 0.0 31 8   101.02     LegendNANA
14:00 9.0 -3.5 41 0.0 29 10   101.10     LegendNANA
15:00 10.2 -2.8 40 0.0 28 8   101.08     LegendNANA
16:00 9.8 -2.8 41 0.0 12 5   101.02     LegendNANA
17:00 8.9 -2.5 45 0.0 6 6   101.01     LegendNANA
18:00 7.0 -2.1 53 0.0 2 10   101.06     LegendNANA
19:00 3.6 -1.8 68 0.0 8 9   101.12     LegendNANA
20:00 1.0 -2.5 77 0.0 9 8   101.14     LegendNANA
21:00 0.4 -2.3 82 0.0 4 4   101.19     LegendNANA
22:00 -1.6 -2.9 91 0.0   0   101.14     LegendNANA
23:00 -2.0 -3.4 90 0.0 6 3   101.12   -3 LegendNANA

Notes on Data Quality.

Legend

  • E = Estimated
  • M = Missing
  • NA = Not Available*
  • [empty] = Indicates an unobserved value
Date modified: